Wind_Speed
24 25 25 25 25 25 24 24 24 24 24 24 22 21 20 20 18 18 18 18 18 18 17 16 15 14 13 13 13 14 15 16 17 16 16 15 14 14 13 12 12 11 10 10 10 9 9 11 11 11 12 11 11 10 10 10 10 10 10 10 11 11 11 11 12 13 13 13 13 13 13 14 16 16 15 15 14 14 14 14 15 17 17 17 16
27 26 25 25 25 25 24 24 24 23 23 23 21 20 20 19 19 18 18 18 17 17 16 14 13 12 12 13 14 15 16 16 16 16 16 16 15 14 14 13 12 12 11 11 10 10 10 12 11 11 12 12 12 12 11 11 11 11 11 11 11 11 11 12 13 13 14 14 13 13 13 13 15 15 15 14 14 15 15 14 15 17 18 17 17
28 27 25 25 25 25 25 24 24 23 22 21 21 20 20 19 18 18 18 17 16 15 14 13 12 12 13 14 15 16 16 16 15 15 15 15 15 15 14 13 13 13 12 11 11 11 12 13 13 12 13 13 13 12 12 12 12 11 12 12 11 11 12 13 14 13 13 13 13 13 13 14 15 15 15 15 15 15 15 15 17 18 18 17 17
27 27 25 24 24 24 24 23 23 23 22 21 21 20 19 18 17 16 16 16 15 14 13 12 12 13 14 15 15 15 15 15 15 15 15 15 14 14 14 13 13 13 12 12 12 12 13 14 14 14 14 13 13 13 13 13 12 12 12 12 11 11 11 13 13 12 10 11 12 13 13 14 15 15 15 16 16 16 16 17 18 18 18 17 17
25 26 26 25 24 24 22 22 22 22 21 20 20 19 17 16 15 15 15 15 14 13 13 13 14 14 15 15 15 15 15 14 14 14 14 14 14 14 13 13 12 12 13 13 12 13 13 14 14 15 15 14 13 13 13 13 13 12 12 11 12 12 12 12 12 11 10 10 11 14 15 14 15 16 16 16 16 16 17 17 18 17 17 17 17
27 27 26 25 25 24 23 21 21 21 20 20 19 17 16 15 15 14 14 14 13 13 14 15 15 15 15 15 15 15 14 14 14 13 14 14 13 13 13 13 12 12 12 12 12 13 14 14 14 15 15 15 15 14 14 14 14 13 12 11 12 13 13 12 12 11 11 11 11 14 15 15 15 16 17 16 16 16 16 16 17 16 16 16 17
28 28 25 25 25 25 23 22 21 21 20 19 17 16 16 15 14 14 14 14 13 14 15 16 16 15 15 15 15 15 14 13 13 13 13 13 13 12 13 13 12 12 13 13 13 13 13 14 15 15 15 15 16 15 15 15 14 13 12 11 13 14 12 11 11 12 12 12 13 15 15 15 15 16 17 16 16 16 16 16 17 17 17 17 17
28 27 25 25 25 25 23 22 22 20 19 18 17 17 16 15 15 14 14 14 14 15 15 16 15 14 15 15 15 15 14 13 13 13 13 12 12 12 12 12 13 13 13 13 14 13 13 14 15 15 15 16 16 16 15 14 14 14 13 13 13 12 12 11 12 13 14 14 14 15 15 15 15 16 17 16 17 17 17 17 17 17 17 16 16
28 26 25 25 25 24 23 22 21 20 19 18 17 17 16 15 15 14 13 14 14 15 15 15 14 14 14 14 15 14 14 13 12 12 12 12 12 12 12 13 13 13 13 13 14 14 13 14 14 15 15 15 16 15 15 14 14 15 14 13 12 11 11 12 12 13 14 14 15 15 15 15 15 16 17 15 16 17 16 16 16 16 16 14 13
26 26 26 25 26 24 24 23 21 20 19 18 16 16 15 15 14 14 14 14 14 15 14 14 13 13 14 14 14 13 13 12 11 11 11 12 12 11 12 12 13 13 13 13 13 13 13 13 14 15 15 15 15 15 14 14 15 15 15 13 11 12 12 12 13 13 14 15 16 16 15 15 15 15 15 14 15 16 16 16 15 15 13 12 13
24 25 26 26 26 25 24 22 21 19 18 16 15 14 14 14 14 14 14 14 14 14 13 13 13 13 13 13 13 13 12 12 11 11 11 11 11 11 11 11 12 12 12 13 13 13 13 13 14 14 14 15 14 14 14 14 15 16 15 13 12 13 14 13 13 14 14 15 16 16 16 15 15 16 15 15 16 16 16 15 14 13 13 13 15
24 24 27 27 25 24 23 21 19 17 16 15 14 14 14 14 14 14 14 14 14 13 13 13 13 12 13 13 12 12 12 11 11 11 11 11 11 11 11 11 12 12 11 12 12 12 13 13 14 14 14 15 14 14 14 15 16 16 15 14 14 14 15 14 14 16 15 15 17 17 16 15 16 16 15 16 16 16 15 14 13 13 14 15 16
26 26 27 26 24 23 21 19 18 16 16 15 15 15 14 15 15 15 14 14 14 13 13 12 13 12 12 12 12 12 12 11 11 11 11 11 11 11 11 11 12 11 11 12 12 12 13 14 14 14 14 15 14 14 14 15 16 16 15 15 15 15 15 15 15 16 16 16 17 17 17 16 16 16 16 15 15 15 14 14 13 14 14 15 17
28 28 27 25 23 21 20 19 18 18 17 16 16 15 14 14 15 15 14 14 13 13 13 13 13 12 12 12 12 12 12 11 11 11 11 11 11 11 11 11 12 11 12 12 12 12 13 14 14 15 14 15 14 14 14 14 15 15 15 16 16 16 16 16 16 17 17 17 17 17 16 16 16 16 16 15 15 14 14 13 13 13 14 16 17
28 28 26 24 23 21 21 20 19 18 17 17 16 16 15 15 14 15 14 13 13 13 13 13 13 12 13 12 12 12 12 12 11 12 11 11 11 11 11 11 12 12 12 11 11 12 13 13 15 15 15 15 14 14 14 13 15 15 15 16 16 16 17 17 16 17 17 17 17 16 16 16 16 16 15 15 14 13 13 13 13 13 14 16 16
27 27 24 23 22 22 21 19 19 18 17 17 16 16 15 15 14 14 14 13 13 13 13 14 14 13 13 13 13 13 12 12 12 12 12 11 11 11 12 12 12 12 12 11 12 13 12 13 15 15 15 15 14 13 14 13 14 15 15 16 16 17 17 17 17 17 17 17 17 16 15 15 16 15 15 14 14 13 12 13 12 12 14 15 15
26 25 23 21 21 21 21 19 19 18 17 16 16 16 15 15 14 13 13 13 14 14 14 14 14 13 13 13 13 13 12 13 12 12 11 11 11 11 12 12 13 12 11 12 12 13 13 14 14 15 14 14 14 13 14 14 13 14 15 15 16 17 17 16 17 17 16 16 15 15 15 15 15 14 14 14 13 12 12 12 11 12 13 14 14
25 24 22 21 21 20 20 19 19 18 17 16 16 15 15 15 14 14 13 14 14 14 14 14 14 13 14 14 14 13 13 13 12 12 11 11 12 11 11 12 13 11 11 12 13 13 13 14 14 15 15 15 14 14 14 14 13 14 15 15 15 16 16 16 16 16 16 15 14 14 14 14 13 14 14 13 12 12 11 11 11 12 12 12 12
24 23 22 21 21 20 19 19 18 17 17 16 15 15 14 14 14 14 14 14 14 14 14 14 14 14 14 14 14 14 13 13 13 13 12 11 11 10 10 12 13 11 11 12 13 13 13 14 15 15 15 15 14 14 15 14 14 14 15 16 16 15 15 15 15 15 14 13 13 13 13 13 13 13 13 13 12 12 11 11 11 11 11 11 11
23 22 21 21 20 20 19 18 17 16 15 14 14 14 14 14 14 14 14 14 14 14 15 15 15 14 14 14 14 14 13 13 14 13 12 11 11 10 10 12 13 12 12 12 13 13 13 15 15 15 15 15 14 14 15 14 14 14 13 14 16 15 14 14 13 13 13 13 12 12 13 12 12 12 12 13 12 12 11 10 10 10 10 10 10
22 21 21 20 20 19 18 18 17 15 15 14 13 13 13 14 13 14 14 14 14 14 15 15 15 15 14 14 13 13 13 13 13 13 12 11 11 10 10 11 13 13 13 13 12 13 14 15 16 16 16 16 15 14 14 14 14 15 14 13 14 13 13 14 11 10 12 12 12 12 12 12 12 11 11 11 11 11 11 10 9 9 8 8 8
22 21 21 20 19 19 18 18 17 16 15 14 13 13 13 14 13 14 14 14 14 15 16 15 15 15 14 13 13 13 13 13 14 13 13 12 11 11 10 11 12 12 13 13 13 14 15 15 15 15 15 15 15 15 14 15 15 15 15 14 14 11 10 11 9 9 11 11 11 11 11 11 11 11 10 10 10 10 10 9 9 8 7 7 8
23 22 22 21 20 19 19 18 17 16 16 14 13 14 14 14 14 14 14 14 14 14 15 16 15 14 13 13 12 13 12 11 13 13 12 12 11 11 11 10 11 12 13 13 14 14 14 13 12 12 13 13 14 14 14 14 14 14 14 14 14 10 7 8 8 8 9 10 10 10 9 9 9 9 9 9 9 9 9 9 8 7 7 7 7
24 23 23 22 21 20 19 18 17 17 16 15 15 15 15 15 14 14 14 14 15 14 14 15 15 14 12 13 12 13 12 11 13 13 11 11 11 12 11 11 11 12 12 12 13 13 12 11 10 10 11 12 14 14 13 13 13 13 13 12 13 11 7 5 7 8 8 9 10 9 9 8 8 8 8 8 8 8 8 8 7 7 6 6 6
24 23 23 22 22 20 20 19 18 18 17 16 16 17 16 15 15 14 14 15 15 15 14 15 15 14 12 12 12 12 11 11 11 12 11 10 11 12 12 11 10 11 11 10 11 11 10 11 10 10 10 11 12 11 11 12 12 12 12 10 9 10 8 5 6 7 7 9 9 8 8 8 8 7 7 7 8 8 8 8 7 6 6 6 6
23 23 23 22 21 21 21 20 18 18 16 16 17 16 16 16 15 15 15 15 15 15 14 14 14 13 12 12 13 12 11 10 10 10 10 9 10 11 11 10 9 9 9 8 8 9 9 10 9 8 9 9 10 10 9 11 10 10 10 8 7 7 7 4 4 7 7 8 9 8 8 8 8 8 7 6 7 8 8 8 7 7 6 6 6
23 23 23 22 22 21 22 21 20 18 16 17 17 16 16 15 16 15 15 16 16 15 14 14 12 12 12 10 11 11 9 9 8 9 8 8 9 9 8 9 8 7 7 7 7 8 8 8 7 6 7 7 9 9 8 10 9 8 8 8 8 7 5 4 4 6 6 7 8 8 7 7 8 8 8 7 7 8 8 7 7 6 6 6 5
23 23 23 23 22 21 22 22 21 19 18 17 16 16 15 15 15 15 16 16 16 14 13 12 12 12 11 9 8 8 9 7 6 6 7 7 8 6 6 7 7 6 5 5 6 7 7 7 7 7 7 6 7 7 6 8 7 6 7 8 8 8 5 3 3 5 6 6 7 7 6 7 7 7 8 7 7 7 7 6 6 6 5 5 5
24 24 22 23 22 21 21 21 21 19 18 18 17 17 16 15 15 15 17 16 15 13 13 11 11 12 10 7 5 6 8 6 4 6 7 7 6 5 6 6 5 6 5 4 6 6 7 7 7 8 8 8 7 7 5 6 6 4 5 7 8 8 5 3 3 3 5 5 5 6 6 6 6 6 7 7 7 7 6 6 6 6 5 4 4
24 23 22 23 22 22 21 20 20 19 19 19 18 17 16 16 16 17 18 17 15 13 14 14 12 13 12 9 7 6 8 6 4 5 7 6 5 5 6 6 5 6 5 4 6 6 7 7 7 7 8 9 9 9 7 6 6 4 4 6 7 7 6 3 2 3 4 5 5 5 5 5 5 5 6 6 7 6 6 6 6 6 6 5 4
24 23 23 23 22 22 21 20 20 19 19 19 18 16 16 18 17 16 17 17 15 14 14 13 12 13 14 14 11 9 11 9 6 6 7 6 4 3 4 6 6 6 5 5 6 6 6 6 6 8 8 8 8 9 8 6 6 5 4 5 5 5 6 4 2 2 3 3 4 4 5 5 5 5 5 5 5 5 5 5 5 6 6 6 5
24 24 23 23 23 23 21 20 20 20 18 18 18 17 16 18 17 17 18 16 15 16 14 11 11 12 13 15 14 11 11 10 9 8 7 7 5 3 3 6 6 6 5 4 5 5 5 6 7 8 7 8 8 7 7 6 5 6 4 4 5 4 6 6 3 0 1 2 4 4 4 4 4 4 4 4 4 3 3 4 4 4 4 5 5
24 23 23 24 23 23 22 21 21 21 19 18 19 18 17 17 16 19 19 15 16 16 13 13 13 12 12 13 13 10 9 8 9 9 8 7 6 5 4 5 6 6 5 4 5 5 5 7 8 9 7 7 7 7 7 6 5 6 5 4 5 4 6 7 5 2 2 2 3 4 3 4 4 4 3 3 3 2 2 2 2 2 3 3 3
25 24 24 24 24 23 23 21 22 23 20 18 19 19 18 18 16 18 17 15 17 16 14 15 16 13 12 11 10 9 7 7 8 8 8 7 6 5 4 4 6 6 6 5 5 6 7 8 8 9 8 6 6 7 8 6 5 7 6 4 5 5 6 6 7 6 2 2 2 3 2 3 3 3 3 3 3 2 1 1 1 1 1 2 1
25 25 25 25 24 24 23 22 23 24 21 20 20 19 18 18 17 17 17 17 16 14 13 14 14 12 12 11 9 8 7 7 8 8 9 8 6 5 4 4 5 6 6 6 6 6 8 7 7 9 9 6 7 9 9 6 5 7 6 5 6 5 5 6 7 8 5 2 1 2 2 1 2 2 2 2 2 1 0 0 0 0 1 1 2
26 25 26 26 24 24 23 22 24 24 21 20 21 19 18 18 16 15 18 18 15 13 12 11 11 10 11 11 10 8 8 8 7 8 10 8 6 6 5 4 3 4 5 7 7 7 8 7 6 10 9 7 7 7 7 6 5 6 5 5 6 5 4 5 6 7 6 4 2 0 2 1 1 2 2 1 2 2 1 1 0 1 1 2 2
26 27 28 27 25 25 24 22 24 24 20 19 20 19 17 18 16 15 17 17 14 13 12 11 11 10 9 10 10 9 8 8 8 8 10 8 7 5 4 4 3 4 5 7 7 6 7 6 5 8 9 9 8 5 5 5 5 5 4 5 5 4 4 5 7 6 5 6 5 3 2 2 2 1 2 1 1 2 3 1 0 0 1 1 2
25 27 28 28 26 25 24 22 24 25 21 19 21 20 19 17 15 15 17 17 13 13 12 12 12 12 11 9 9 9 8 8 8 8 9 8 7 5 4 5 4 5 6 7 7 7 8 7 6 6 8 9 8 5 4 4 4 5 5 4 5 4 3 3 6 5 4 6 6 4 5 4 1 1 1 1 1 2 3 2 1 0 0 1 2
25 27 28 28 27 25 25 23 24 25 22 21 22 21 20 18 15 14 16 16 14 13 12 12 12 12 11 8 8 9 8 8 8 8 8 7 7 5 6 6 5 6 6 6 7 7 8 8 6 7 8 8 6 6 6 5 5 6 5 2 3 5 3 2 5 5 4 4 4 4 4 2 2 3 2 1 3 3 2 1 2 1 1 1 2
26 28 29 29 27 26 26 25 25 26 24 24 24 23 22 20 17 15 17 18 14 13 13 12 12 11 10 7 8 10 8 8 8 8 8 7 6 5 6 5 5 6 5 5 6 6 7 6 5 7 9 8 6 6 6 5 4 6 7 3 1 3 3 3 3 3 3 3 3 5 3 2 1 2 1 0 3 5 4 2 3 3 1 2 3
27 29 30 30 28 27 28 27 27 28 27 27 26 24 23 22 20 17 19 19 16 15 14 12 12 11 10 8 10 10 8 8 8 8 7 5 6 6 5 4 4 4 5 6 5 5 6 5 4 6 8 8 6 5 4 4 4 4 5 3 2 3 2 3 3 2 3 3 2 4 4 3 3 1 2 2 2 4 6 5 4 5 4 3 3
29 30 30 32 30 28 29 29 29 29 29 28 27 25 24 23 22 18 18 18 17 16 15 13 12 12 11 9 10 10 9 9 8 8 6 5 5 5 5 3 3 3 4 6 5 5 5 5 5 5 7 8 7 4 4 5 4 3 4 3 2 2 2 3 2 2 2 3 2 1 4 3 1 2 1 3 3 1 3 6 4 4 5 5 4
29 30 31 32 31 30 30 30 30 30 30 29 27 26 24 23 21 18 17 17 17 16 15 14 13 13 12 9 10 11 10 9 8 7 6 5 5 4 5 3 2 3 3 3 4 5 5 4 5 5 5 6 7 3 4 7 5 1 3 5 3 1 1 2 2 3 2 2 2 2 2 3 3 2 2 3 6 2 2 5 4 4 7 6 5
30 30 32 33 32 32 32 32 32 31 30 30 28 26 25 23 21 18 16 16 16 15 14 15 13 11 11 10 11 11 10 9 8 7 7 6 5 4 4 4 3 3 3 2 3 4 5 3 3 4 4 5 7 5 2 5 4 3 3 4 4 2 1 3 3 3 2 2 2 3 3 2 5 4 1 1 2 4 5 7 5 5 6 4 5
32 31 33 34 32 33 34 33 32 31 31 31 30 28 26 25 22 19 18 16 16 16 15 16 14 10 9 10 11 11 9 9 8 7 7 6 6 5 5 4 3 3 3 3 3 3 4 3 2 3 4 5 7 6 3 2 1 4 6 3 3 2 2 5 3 1 3 2 1 4 5 2 5 7 4 1 5 5 4 6 7 8 5 4 5
33 32 33 34 33 34 36 35 34 32 31 32 32 30 28 27 25 23 22 19 18 19 17 16 16 13 10 9 10 11 10 9 8 8 7 7 7 6 5 4 4 3 3 3 3 3 3 2 1 3 4 4 6 6 6 3 3 2 6 4 4 3 4 3 2 2 2 2 3 5 5 1 5 8 7 2 4 2 0 5 7 8 8 8 8
33 33 32 34 33 35 38 37 36 34 32 33 34 32 30 29 28 27 25 21 19 20 19 16 14 14 13 10 10 10 10 10 9 8 8 7 7 7 6 5 5 4 4 3 3 4 3 3 1 2 3 3 4 6 7 6 2 1 5 3 2 2 2 1 2 3 3 3 1 4 4 1 3 8 7 3 3 6 3 3 6 7 9 11 10
34 33 33 34 34 36 38 39 37 35 34 34 35 35 33 32 31 29 28 24 21 21 20 17 14 13 13 12 10 9 10 11 10 10 9 8 7 7 6 6 5 4 4 4 4 4 3 4 3 2 3 2 4 5 7 7 2 1 2 3 2 1 1 1 1 1 3 4 2 3 4 2 1 4 5 4 4 6 5 5 7 7 8 10 12
34 35 34 35 36 36 38 39 39 38 36 36 37 37 35 34 32 31 30 27 23 21 21 20 16 13 13 12 10 8 9 10 11 11 10 9 8 7 7 6 6 5 5 4 3 2 3 4 4 3 3 3 3 3 4 6 5 2 2 5 6 2 1 1 1 2 2 2 3 1 3 3 1 2 2 3 2 3 6 8 8 6 6 8 12
34 35 34 34 36 37 39 40 40 40 38 38 38 39 37 36 34 32 31 29 24 21 21 21 19 16 14 14 13 11 10 10 11 12 11 10 9 8 8 7 6 6 6 5 4 5 6 5 4 3 3 3 3 3 3 5 6 5 2 2 5 5 2 3 2 1 1 2 5 5 2 1 3 2 2 0 3 3 5 6 7 6 7 8 11
34 34 35 34 36 38 40 41 41 41 41 40 40 40 39 38 36 34 32 30 27 23 21 20 21 20 18 17 16 16 14 12 11 12 12 11 11 10 9 8 7 7 7 7 7 7 5 5 3 4 4 3 3 3 3 3 3 4 3 2 1 4 1 1 2 1 0 1 4 4 3 3 1 1 3 3 3 4 4 5 6 6 6 8 9
Wind_Direction
140 139 136 134 134 134 132 130 126 127 129 129 129 129 125 122 122 120 119 116 116 116 117 117 117 117 117 117 115 113 109 104 101 98 97 95 95 97 96 94 92 89 87 88 88 89 93 94 94 94 97 100 100 97 94 93 90 87 87 86 85 88 89 88 86 83 83 84 90 92 93 97 96 90 86 83 81 81 79 78 82 85 86 87 89
142 140 138 136 135 135 133 131 127 127 129 127 128 126 122 122 122 120 117 115 115 117 117 116 115 115 115 114 114 111 108 105 103 100 97 95 96 97 95 93 93 91 88 89 90 90 94 96 97 96 97 99 96 95 93 90 88 87 87 87 84 85 83 80 80 80 81 82 87 90 91 92 89 86 84 81 79 77 76 80 84 85 86 87 87
142 142 141 138 137 137 135 133 131 131 130 128 126 123 121 122 120 118 116 117 118 117 114 112 110 109 109 109 109 107 106 105 103 101 96 94 94 93 91 89 88 88 89 89 89 89 91 95 98 96 94 93 92 92 92 90 89 86 84 84 83 82 80 82 82 83 89 92 95 94 92 91 88 85 84 81 80 79 80 85 85 85 88 89 88
141 143 144 139 136 136 134 134 134 135 135 132 127 123 121 121 119 117 117 119 118 114 110 106 105 105 105 106 106 105 105 104 101 99 96 92 90 89 88 85 83 86 90 92 94 94 92 94 95 95 93 90 89 90 89 88 87 86 86 85 87 88 87 89 90 91 103 108 106 107 102 97 94 89 86 84 82 83 85 87 86 87 89 90 88
141 143 144 138 136 135 134 134 136 137 137 134 127 124 123 121 122 121 119 118 115 110 107 105 105 105 105 105 105 106 105 103 100 98 95 93 89 88 88 86 83 85 89 93 98 100 97 95 94 93 92 88 86 85 85 86 84 85 87 89 91 93 92 91 95 97 102 104 103 107 105 99 96 93 91 89 88 87 87 89 88 88 88 88 87
142 142 142 138 139 138 136 136 137 138 138 134 128 127 126 125 126 123 119 114 111 110 111 110 109 107 106 106 106 107 106 102 99 98 96 93 91 89 88 86 81 83 88 94 97 99 99 96 94 92 90 88 85 85 85 86 85 85 87 90 90 91 91 88 91 92 92 96 101 104 104 98 96 95 93 90 88 89 89 89 88 87 86 86 88
140 139 140 139 140 140 137 137 137 139 138 135 133 132 130 129 127 122 116 112 113 115 116 115 113 111 108 107 107 107 105 101 98 96 95 94 92 90 88 86 81 82 87 92 94 95 97 97 95 93 91 90 88 87 86 86 88 90 91 88 88 91 95 93 92 96 96 100 107 107 105 102 99 97 93 90 88 88 89 88 88 89 87 87 88
138 137 139 141 142 141 138 138 137 138 137 137 135 133 132 130 126 120 116 116 118 120 119 118 115 113 110 109 107 106 103 99 95 94 95 94 92 90 89 87 83 83 86 88 90 91 93 94 94 93 93 93 91 89 86 86 86 88 90 88 87 90 98 99 100 105 100 100 106 105 105 104 101 99 97 94 91 89 90 90 90 89 87 86 88
137 137 140 142 142 140 139 138 137 137 137 137 135 133 134 131 126 122 121 121 122 122 121 119 115 112 109 108 107 105 103 100 96 94 94 94 92 92 89 87 84 84 87 89 91 92 93 93 94 95 95 95 94 94 91 89 86 85 87 88 89 90 97 101 102 104 102 102 106 106 105 103 101 101 100 94 90 91 91 90 89 87 87 87 90
136 139 141 142 142 140 139 139 138 138 138 137 137 136 135 131 128 127 127 126 125 124 122 118 114 111 109 108 107 105 102 99 97 96 95 94 94 94 91 90 89 88 89 90 92 93 95 95 95 96 97 97 98 98 96 93 89 87 86 86 90 94 97 100 103 105 105 107 108 109 107 104 102 100 98 93 90 92 93 91 90 89 88 89 90
134 139 141 143 143 141 139 140 140 138 138 138 138 138 135 133 132 133 131 128 126 125 122 118 113 110 111 109 107 104 101 99 98 98 97 96 96 96 94 93 92 89 89 89 90 92 96 97 96 97 97 97 98 99 98 95 91 88 87 87 92 95 95 99 104 106 108 108 107 108 107 107 105 100 97 97 96 95 95 93 92 91 90 90 88
132 138 142 143 143 141 139 139 138 136 137 138 139 138 136 135 135 134 131 129 127 126 122 117 114 112 111 109 107 105 103 102 99 98 98 97 96 96 94 92 91 88 88 88 89 92 95 98 99 99 99 98 97 98 96 94 92 89 89 91 93 92 94 98 102 105 107 108 109 111 110 110 107 102 102 102 101 99 97 94 92 92 91 90 88
137 142 141 141 139 138 137 136 136 136 137 137 138 136 135 135 134 133 131 130 129 126 123 117 114 112 112 109 106 105 105 104 101 100 99 98 96 95 93 91 92 90 88 87 89 93 95 97 99 100 100 99 98 97 95 94 92 89 89 91 93 90 90 95 100 105 108 110 112 113 112 110 107 106 106 105 103 101 97 94 92 93 92 91 91
143 144 141 141 138 136 135 134 135 136 136 135 135 133 132 133 132 132 131 131 129 126 122 117 114 112 112 110 107 106 106 105 101 100 99 98 97 96 93 90 89 88 86 86 89 92 93 95 97 100 100 99 100 98 96 95 94 91 90 90 92 92 91 93 98 103 108 111 110 111 111 108 108 109 109 107 105 102 97 93 92 94 95 95 94
143 144 144 142 136 134 134 134 134 135 134 133 133 132 132 131 131 130 131 131 128 126 122 118 116 114 113 110 109 107 105 104 101 101 99 99 98 96 93 88 85 85 86 87 89 90 91 94 96 98 99 99 100 100 99 97 96 95 94 92 93 95 94 94 96 100 106 110 110 110 108 107 109 110 111 110 107 103 98 94 92 95 97 97 95
141 146 145 141 137 135 134 135 133 133 133 133 134 133 132 131 130 130 131 130 128 126 122 120 118 115 114 112 111 109 106 104 101 99 98 99 99 96 92 89 86 84 86 90 91 91 91 94 95 96 97 99 101 102 102 99 97 97 94 93 93 93 94 96 98 101 106 109 111 111 108 106 107 109 111 112 109 105 101 96 93 96 99 97 93
143 148 144 140 137 135 135 135 133 132 133 134 135 132 132 131 130 131 130 128 127 125 123 121 119 117 116 114 112 110 108 104 101 101 99 101 99 95 93 89 87 85 89 92 93 94 94 95 97 99 100 102 104 105 103 100 98 96 95 93 92 93 94 96 98 102 105 108 111 110 108 105 106 109 112 112 110 107 102 97 95 98 101 98 92
141 145 144 141 136 135 135 135 135 135 135 135 135 133 132 131 130 130 129 127 125 124 124 122 121 120 117 114 112 109 106 104 103 103 100 99 96 93 92 88 86 86 88 89 90 93 94 97 99 100 102 103 105 106 103 100 97 96 97 94 91 92 95 95 96 99 103 107 110 110 109 109 109 109 109 111 111 109 105 101 100 103 102 98 95
139 142 142 140 138 138 136 136 137 137 137 138 137 136 134 132 131 131 130 128 127 126 125 124 123 121 117 114 112 109 106 104 102 100 98 96 94 91 88 84 86 88 90 90 91 91 93 97 99 99 100 102 104 105 105 102 97 93 95 97 92 88 93 99 98 99 103 107 110 112 113 115 115 113 111 112 112 110 109 108 107 107 104 101 99
140 141 140 141 143 142 140 139 139 139 140 141 140 140 139 135 133 133 131 129 130 128 126 126 124 120 118 115 113 112 109 107 104 100 98 94 92 89 86 85 88 92 94 93 92 93 95 97 98 100 100 99 100 101 103 102 99 94 93 95 93 90 92 96 96 98 102 107 111 114 117 121 121 118 116 116 115 114 113 112 112 109 107 105 101
141 142 141 144 147 145 143 141 140 141 142 144 144 144 143 140 138 135 132 132 132 129 126 126 123 121 119 118 117 114 111 111 109 105 102 98 97 95 92 89 90 95 97 98 97 94 93 94 95 97 97 96 95 96 100 101 102 100 97 94 92 93 97 96 98 100 101 107 113 118 121 124 124 120 121 121 120 118 116 115 113 110 108 106 100
145 147 145 149 152 148 145 144 143 143 142 145 147 149 148 144 141 136 134 133 131 129 128 127 124 123 121 121 120 113 112 113 110 106 103 102 101 100 95 89 89 93 96 96 95 91 90 94 97 97 95 96 95 94 97 101 104 102 100 97 92 90 96 106 114 103 99 105 110 114 118 120 121 121 122 124 124 122 120 119 115 114 111 104 97
150 150 149 154 156 152 149 148 147 145 144 146 149 151 150 146 144 139 136 135 134 134 133 130 127 125 124 123 119 113 113 114 110 107 107 107 104 102 98 92 90 89 90 92 94 96 99 102 102 101 99 97 96 96 97 100 101 102 102 100 102 103 97 108 115 102 101 106 106 107 109 112 116 120 123 126 127 128 127 125 122 122 117 107 100
153 152 154 158 158 156 154 152 151 148 148 151 152 150 149 147 145 143 142 141 140 139 138 134 131 132 127 122 120 116 116 115 112 109 108 108 105 102 101 98 94 90 91 96 102 107 107 102 100 100 100 98 97 99 100 98 97 100 99 97 107 118 119 113 106 103 105 104 103 105 106 107 108 113 123 130 132 133 134 132 131 127 120 115 110
153 153 155 158 161 160 156 156 154 152 153 154 154 151 150 149 148 147 147 146 144 144 144 141 137 135 129 124 123 117 116 116 112 112 112 111 108 103 103 103 98 97 100 104 107 110 104 97 99 96 94 98 100 100 100 99 98 96 94 97 109 122 135 137 102 99 103 104 105 104 107 104 102 103 112 132 141 138 134 133 136 132 126 128 128
154 155 155 157 162 161 158 158 155 154 156 157 156 153 153 153 153 153 149 147 149 148 147 146 139 131 132 133 128 122 120 120 116 118 119 114 109 105 107 106 98 96 101 108 112 113 109 103 105 101 95 97 94 93 100 100 97 97 104 113 113 115 134 146 110 103 101 104 107 106 106 101 98 97 97 116 138 139 133 130 133 131 129 133 139
156 157 157 158 159 161 161 160 156 156 159 160 156 154 156 156 155 154 151 150 151 149 149 152 142 133 139 134 126 125 123 123 123 124 119 110 109 111 113 109 103 100 102 113 113 107 113 114 114 116 113 108 91 83 93 99 97 106 117 119 115 121 139 145 115 105 101 103 108 106 103 99 97 96 93 99 118 132 133 132 133 131 131 133 138
157 157 158 158 158 163 164 161 161 163 165 163 154 155 158 155 155 154 153 152 149 147 151 152 140 137 138 123 117 119 118 122 122 119 109 107 113 111 109 113 113 109 106 110 103 101 121 126 118 112 109 113 102 90 90 95 99 112 120 120 122 134 149 142 117 103 103 104 108 110 105 100 98 98 98 97 103 118 128 134 136 134 134 134 134
158 158 160 159 159 164 165 165 166 166 168 164 154 155 158 155 154 153 153 150 145 145 148 148 136 136 136 124 128 117 119 129 111 107 105 105 116 112 106 119 125 114 108 96 95 108 127 131 127 125 121 124 125 122 114 102 103 102 107 116 121 134 149 150 134 109 106 105 104 110 109 103 99 99 101 102 104 108 115 122 127 130 135 135 131
161 159 161 160 162 165 164 169 170 165 166 162 153 157 162 161 160 154 150 145 146 149 150 151 144 145 149 153 166 143 134 139 110 107 110 110 124 122 110 114 115 114 118 112 109 115 125 132 135 138 141 143 141 133 126 121 121 104 88 106 115 130 144 152 136 107 102 107 106 107 112 110 104 103 100 100 101 101 105 108 111 115 119 124 127
162 161 163 161 164 164 163 172 170 163 165 160 155 165 166 163 166 155 148 151 154 154 152 152 151 156 157 156 163 149 142 147 135 120 120 126 137 133 121 118 106 107 125 126 116 121 132 134 126 132 143 142 133 124 124 123 121 117 99 108 120 132 137 142 140 89 78 91 110 115 116 114 108 107 105 99 94 92 95 97 102 106 110 118 122
163 164 164 163 165 163 165 172 168 161 163 161 161 168 162 160 166 156 153 160 157 152 149 152 163 168 158 154 159 148 146 156 150 143 146 148 149 157 145 128 118 121 133 129 119 118 119 118 120 130 132 126 124 121 124 123 118 122 119 115 123 132 128 130 145 121 34 72 122 125 110 109 110 111 110 106 100 92 92 87 90 99 104 113 117
165 166 165 165 165 164 166 169 168 163 160 165 166 165 160 159 162 157 161 163 152 149 151 164 180 180 166 161 166 162 162 167 157 151 151 146 141 150 145 126 130 130 117 115 134 127 113 116 124 127 117 115 132 133 125 124 121 117 123 128 122 123 117 124 142 154 329 7 99 120 113 109 102 100 101 99 102 92 101 110 104 104 109 118 124
166 167 167 167 165 166 166 167 172 166 159 169 168 162 163 162 159 161 168 162 152 151 159 178 190 187 176 170 174 176 172 162 158 152 140 136 139 144 136 125 132 124 108 112 133 133 123 119 118 121 119 119 132 131 126 130 135 119 123 136 121 118 117 128 144 143 194 293 41 74 101 126 119 107 96 85 90 89 95 135 133 137 150 160 179
167 168 168 168 166 168 168 169 176 169 163 171 166 163 168 162 158 169 172 159 152 157 167 185 190 183 176 174 176 177 166 153 160 154 135 133 138 133 124 114 119 117 115 120 125 126 117 109 108 114 119 120 116 121 127 137 146 126 126 139 121 111 119 138 145 138 160 211 9 22 36 112 134 120 109 84 64 60 49 287 193 165 229 236 258
169 170 169 169 169 170 169 173 180 171 167 174 165 163 168 161 159 176 173 154 152 164 172 177 172 171 174 175 176 173 164 155 160 152 140 143 139 132 129 111 107 119 123 120 123 124 109 100 110 116 116 111 104 114 128 133 135 121 122 134 119 116 131 133 128 131 144 143 140 354 18 4 152 139 138 88 32 12 359 323 282 281 288 292 296
172 171 170 171 171 172 170 176 183 171 168 175 165 161 165 162 163 176 168 153 157 166 167 166 156 163 176 175 175 175 167 158 161 152 147 150 134 123 122 116 126 142 131 122 123 119 112 113 119 122 118 111 111 121 132 123 120 119 120 124 117 118 130 124 125 141 150 140 152 160 144 256 292 111 134 99 35 350 334 340 22 296 287 304 311
173 172 171 172 173 174 172 177 183 172 169 175 168 164 163 162 168 173 163 154 161 163 163 165 159 171 181 175 175 178 171 160 160 156 155 150 136 133 129 130 143 139 124 118 120 109 110 121 126 127 114 110 119 131 142 134 121 129 133 134 134 121 102 119 132 137 138 139 150 157 167 197 267 288 194 280 312 337 323 314 8 342 317 343 336
174 174 173 173 175 177 174 180 183 173 172 176 171 167 163 162 167 171 166 157 158 162 165 165 165 183 189 179 180 183 175 165 159 158 160 148 141 141 128 132 137 133 122 115 122 110 105 114 122 130 116 108 119 126 135 130 121 139 140 132 140 128 105 97 118 118 120 134 150 168 187 175 170 227 261 321 298 323 320 296 337 304 291 356 1
175 176 175 173 177 179 175 180 183 175 177 178 173 170 168 166 164 171 173 162 159 168 170 166 168 190 203 194 186 185 175 167 159 156 158 149 147 137 129 142 135 136 136 116 116 111 106 104 116 128 114 109 120 120 124 127 144 156 141 121 88 114 107 94 113 123 121 123 121 142 184 305 87 189 223 209 282 309 310 310 320 305 2 17 346
177 179 178 175 179 180 176 181 182 179 183 182 176 174 175 171 165 174 176 163 164 171 171 169 167 186 208 198 184 185 175 167 160 154 154 142 141 134 135 148 130 133 130 110 108 107 107 104 119 130 118 123 127 122 138 138 148 145 125 120 65 76 80 87 117 118 115 142 111 116 156 265 335 67 173 195 221 262 288 321 348 334 4 16 332
177 179 179 177 181 181 178 183 183 184 188 186 181 179 181 177 169 175 176 167 170 170 168 171 170 187 206 193 183 187 178 170 163 158 157 140 136 136 140 151 135 132 120 114 116 111 114 115 123 127 123 132 127 136 165 123 104 115 117 134 104 66 61 75 126 154 134 154 165 133 147 167 339 49 154 303 339 156 283 327 353 329 328 343 341
178 179 180 178 182 182 181 184 184 186 191 189 186 183 185 184 174 172 173 172 173 170 169 167 171 196 210 201 191 189 181 177 174 168 167 159 156 151 151 167 157 134 119 123 124 111 116 126 129 129 132 138 130 150 173 120 110 143 123 137 134 93 67 77 136 159 165 170 174 202 158 146 179 186 196 300 341 66 186 272 275 279 297 328 345
179 180 180 179 183 183 184 186 184 188 193 191 190 188 186 182 172 168 171 176 174 171 174 168 171 200 212 204 196 190 184 184 185 181 178 173 171 170 167 171 158 149 139 120 110 101 111 126 129 134 140 141 132 138 157 122 124 149 137 144 142 142 120 100 113 133 160 213 211 201 206 195 210 236 226 147 263 256 249 270 296 318 302 312 330
182 182 181 181 184 185 186 188 186 189 194 192 192 191 187 177 168 167 172 181 178 172 177 173 173 190 200 199 195 190 188 188 187 188 185 179 179 183 181 176 171 169 149 121 115 115 124 129 124 142 148 138 133 137 152 164 220 162 152 157 139 103 56 90 106 137 162 208 259 218 226 232 216 247 327 97 228 254 271 286 320 347 336 325 333
185 184 184 183 185 187 188 189 187 190 194 194 192 192 187 178 172 170 170 178 183 178 178 178 178 179 183 200 201 190 191 192 190 191 189 184 186 190 190 185 185 182 169 151 138 132 132 132 126 154 150 142 140 136 139 159 279 171 133 130 119 76 36 66 61 63 132 231 230 221 248 304 208 250 322 353 243 304 309 268 314 345 339 327 330
186 186 186 185 187 189 190 190 189 191 194 195 193 192 189 182 177 174 170 173 184 184 177 177 184 180 179 203 211 196 195 195 193 197 196 192 194 198 199 196 193 192 195 193 163 147 147 159 206 179 140 148 154 140 139 151 255 59 104 100 115 67 36 94 26 41 35 340 159 183 231 280 222 254 313 356 278 300 268 260 319 325 312 315 323
187 187 187 187 189 191 193 192 191 193 195 197 195 193 193 189 183 179 176 175 182 187 179 172 184 186 179 199 219 210 198 192 195 202 201 202 205 204 206 205 200 201 207 206 173 158 177 188 210 201 145 159 167 151 151 149 111 35 127 165 185 304 328 118 34 60 56 12 36 129 173 201 246 231 274 306 278 278 263 271 305 309 305 312 317
187 188 188 189 190 193 195 194 194 195 197 199 197 197 197 194 190 185 183 182 182 188 184 172 177 186 180 190 209 220 215 200 199 206 205 206 211 210 212 211 207 211 212 211 179 184 235 220 208 205 165 164 167 156 162 151 126 118 220 198 181 191 320 182 313 20 77 18 341 12 146 175 175 142 263 287 221 280 303 301 304 323 317 300 307
190 189 189 189 190 194 197 197 198 198 199 202 201 200 200 199 197 193 191 190 186 190 192 181 177 182 184 187 192 205 227 220 206 209 210 208 213 214 216 216 214 219 212 202 200 217 245 240 206 200 191 176 171 166 170 161 147 146 188 246 180 165 167 183 191 54 74 353 352 353 30 137 192 135 27 4 176 240 290 296 300 324 321 302 311
191 191 191 191 190 194 199 199 201 201 201 204 204 202 203 203 203 201 199 198 193 192 196 195 189 186 187 191 190 194 214 224 215 215 216 213 215 216 218 221 218 223 217 202 204 211 237 264 243 205 198 197 190 182 173 172 172 156 169 303 75 128 138 87 114 74 17 331 334 324 358 20 310 289 335 306 291 289 274 280 292 305 301 292 303
Height
1529 1530 1532 1533 1535 1536 1537 1538 1539 1541 1542 1544 1545 1546 1547 1549 1550 1551 1552 1554 1555 1556 1558 1559 1560 1561 1562 1562 1563 1563 1564 1564 1564 1565 1565 1566 1566 1566 1566 1566 1566 1567 1567 1567 1567 1567 1567 1567 1567 1567 1567 1568 1568 1568 1569 1569 1570 1570 1571 1571 1572 1573 1573 1573 1574 1574 1575 1575 1576 1576 1575 1575 1575 1575 1576 1576 1576 1576 1576 1576 1576 1575 1574 1574 1575
1529 1531 1532 1534 1536 1537 1539 1539 1541 1542 1544 1545 1546 1547 1548 1549 1551 1552 1553 1555 1556 1557 1559 1560 1561 1562 1562 1563 1564 1564 1564 1565 1565 1565 1566 1566 1567 1567 1567 1567 1567 1567 1568 1568 1567 1567 1568 1568 1568 1568 1568 1569 1569 1569 1569 1570 1571 1571 1572 1572 1573 1574 1574 1575 1575 1576 1576 1576 1576 1576 1576 1576 1577 1577 1577 1577 1577 1577 1577 1578 1577 1576 1576 1576 1576
1530 1532 1533 1535 1536 1538 1540 1541 1542 1543 1545 1546 1547 1548 1549 1551 1552 1554 1554 1556 1557 1558 1559 1560 1561 1562 1563 1563 1564 1564 1565 1565 1565 1566 1566 1567 1567 1568 1568 1568 1568 1568 1569 1568 1568 1568 1569 1569 1569 1569 1570 1570 1570 1570 1570 1571 1572 1572 1573 1573 1574 1575 1576 1576 1576 1577 1577 1575 1576 1576 1577 1577 1577 1578 1578 1578 1578 1579 1579 1579 1578 1577 1577 1577 1577
1531 1533 1534 1536 1537 1539 1540 1542 1543 1544 1546 1547 1548 1550 1551 1552 1553 1555 1555 1557 1557 1559 1560 1560 1562 1562 1563 1564 1564 1565 1565 1566 1566 1566 1567 1567 1568 1568 1568 1569 1569 1569 1569 1569 1569 1569 1570 1570 1570 1570 1570 1571 1571 1571 1571 1572 1572 1573 1573 1574 1574 1575 1576 1576 1576 1577 1576 1575 1575 1575 1576 1577 1577 1578 1578 1579 1579 1580 1580 1580 1579 1579 1579 1579 1579
1532 1533 1535 1537 1538 1540 1541 1543 1544 1545 1547 1548 1549 1551 1552 1553 1554 1555 1556 1557 1558 1559 1560 1561 1562 1563 1564 1564 1565 1565 1566 1566 1567 1567 1567 1568 1569 1569 1569 1569 1569 1570 1570 1570 1570 1570 1570 1571 1571 1571 1571 1572 1572 1572 1572 1573 1573 1574 1574 1574 1575 1576 1576 1576 1576 1576 1576 1577 1577 1576 1577 1578 1578 1579 1579 1580 1581 1581 1581 1581 1581 1581 1581 1581 1581
1532 1534 1536 1537 1540 1541 1542 1544 1545 1546 1548 1549 1550 1552 1553 1554 1555 1556 1557 1558 1559 1560 1561 1562 1563 1564 1564 1565 1565 1566 1567 1567 1567 1568 1568 1569 1569 1570 1570 1570 1570 1571 1571 1571 1571 1571 1571 1572 1572 1572 1572 1573 1573 1574 1574 1574 1574 1574 1574 1575 1576 1577 1576 1576 1577 1577 1577 1578 1578 1578 1578 1579 1580 1580 1580 1581 1581 1582 1582 1582 1582 1582 1582 1582 1582
1532 1534 1537 1538 1540 1542 1543 1545 1546 1548 1549 1550 1551 1553 1554 1555 1556 1557 1558 1559 1560 1561 1562 1563 1564 1565 1565 1566 1566 1567 1567 1568 1568 1569 1569 1570 1570 1571 1571 1571 1571 1571 1571 1572 1572 1572 1572 1573 1573 1573 1574 1574 1574 1575 1575 1575 1575 1575 1575 1576 1577 1577 1577 1576 1577 1578 1578 1578 1578 1578 1579 1580 1581 1581 1582 1582 1583 1583 1583 1583 1583 1583 1583 1583 1583
1534 1535 1537 1539 1540 1542 1544 1546 1547 1549 1550 1551 1552 1554 1555 1556 1557 1558 1559 1560 1561 1562 1563 1564 1565 1565 1566 1566 1567 1567 1568 1568 1569 1570 1570 1571 1571 1571 1572 1572 1572 1572 1572 1572 1573 1573 1573 1573 1574 1574 1574 1575 1575 1576 1576 1576 1576 1576 1577 1577 1578 1578 1577 1578 1578 1578 1578 1578 1578 1579 1580 1581 1582 1582 1583 1583 1584 1584 1584 1584 1584 1584 1584 1585 1584
1534 1536 1538 1540 1541 1543 1545 1547 1548 1549 1551 1552 1553 1554 1555 1556 1558 1559 1560 1561 1562 1563 1564 1565 1565 1566 1566 1567 1568 1568 1569 1569 1570 1571 1571 1572 1572 1572 1573 1573 1573 1573 1573 1573 1574 1574 1574 1574 1575 1575 1575 1576 1576 1577 1577 1577 1577 1577 1578 1578 1578 1578 1578 1579 1579 1579 1579 1579 1579 1580 1581 1582 1583 1583 1584 1584 1585 1585 1585 1585 1585 1585 1586 1586 1586
1535 1536 1539 1540 1542 1544 1545 1547 1549 1550 1552 1553 1554 1555 1556 1557 1558 1560 1561 1562 1563 1564 1565 1566 1566 1567 1567 1568 1568 1569 1570 1571 1571 1572 1572 1573 1573 1573 1574 1574 1574 1574 1574 1575 1575 1575 1575 1576 1576 1576 1577 1577 1577 1578 1578 1578 1578 1579 1579 1579 1579 1580 1579 1580 1580 1579 1579 1580 1580 1581 1582 1583 1584 1584 1585 1586 1586 1586 1586 1586 1587 1587 1587 1587 1587
1536 1537 1539 1541 1543 1545 1546 1548 1549 1551 1552 1553 1554 1555 1557 1558 1559 1560 1561 1562 1564 1565 1566 1566 1567 1568 1568 1569 1569 1570 1571 1572 1572 1573 1573 1574 1574 1574 1575 1575 1575 1575 1575 1575 1575 1576 1576 1577 1577 1578 1578 1578 1579 1578 1578 1578 1579 1580 1580 1580 1580 1581 1581 1581 1581 1580 1581 1581 1581 1582 1583 1584 1585 1586 1586 1587 1587 1587 1588 1588 1588 1588 1588 1588 1588
1537 1538 1540 1541 1543 1545 1547 1548 1550 1551 1552 1554 1555 1556 1557 1559 1560 1561 1562 1563 1564 1566 1566 1567 1568 1569 1569 1570 1571 1571 1572 1573 1573 1574 1574 1574 1575 1575 1575 1575 1576 1576 1576 1576 1576 1577 1577 1578 1578 1579 1579 1579 1579 1579 1579 1579 1580 1581 1581 1581 1581 1582 1582 1582 1582 1582 1582 1582 1583 1583 1585 1586 1586 1587 1588 1588 1588 1588 1589 1589 1589 1589 1589 1589 1589
1537 1538 1540 1542 1544 1545 1547 1548 1550 1552 1553 1554 1555 1557 1558 1559 1560 1561 1563 1564 1565 1566 1567 1568 1569 1570 1570 1571 1572 1572 1573 1574 1574 1574 1575 1575 1576 1576 1576 1576 1577 1577 1577 1577 1577 1578 1578 1579 1579 1579 1580 1580 1580 1580 1580 1580 1581 1582 1582 1582 1582 1583 1583 1583 1583 1584 1584 1584 1584 1585 1585 1587 1587 1588 1589 1589 1589 1590 1590 1590 1590 1590 1590 1590 1590
1537 1538 1541 1542 1544 1546 1547 1549 1551 1552 1553 1555 1556 1557 1559 1560 1561 1562 1564 1565 1566 1567 1568 1569 1569 1570 1571 1572 1572 1573 1574 1574 1575 1575 1576 1576 1576 1577 1577 1577 1578 1578 1578 1578 1579 1579 1579 1579 1580 1580 1581 1581 1581 1581 1581 1582 1582 1583 1583 1584 1584 1584 1585 1585 1584 1585 1585 1586 1586 1586 1587 1587 1588 1589 1589 1590 1590 1591 1591 1591 1591 1592 1591 1591 1591
1537 1539 1541 1543 1544 1546 1548 1549 1551 1552 1554 1555 1557 1558 1559 1561 1562 1563 1564 1566 1567 1568 1568 1569 1570 1571 1572 1573 1574 1574 1575 1575 1576 1576 1577 1577 1577 1578 1578 1579 1579 1579 1579 1580 1580 1580 1580 1581 1581 1581 1582 1582 1582 1583 1583 1583 1584 1584 1585 1585 1585 1585 1586 1586 1586 1586 1586 1587 1587 1588 1588 1589 1590 1590 1591 1591 1591 1592 1592 1592 1592 1593 1593 1592 1592
1539 1540 1542 1544 1545 1546 1548 1550 1551 1553 1554 1556 1557 1559 1560 1561 1563 1564 1565 1566 1567 1568 1569 1570 1571 1572 1573 1574 1575 1575 1576 1576 1577 1577 1577 1578 1578 1579 1579 1580 1580 1580 1581 1581 1581 1581 1582 1582 1582 1582 1583 1584 1584 1584 1584 1584 1585 1585 1586 1586 1586 1586 1586 1587 1587 1587 1588 1588 1588 1589 1590 1590 1591 1591 1592 1592 1592 1593 1593 1593 1593 1594 1594 1594 1594
1540 1541 1542 1544 1546 1547 1549 1550 1552 1554 1555 1557 1558 1559 1561 1562 1563 1565 1566 1567 1568 1569 1570 1571 1572 1573 1574 1575 1576 1576 1577 1577 1578 1578 1578 1579 1579 1580 1580 1581 1581 1581 1582 1582 1582 1583 1583 1583 1583 1584 1584 1585 1585 1586 1585 1586 1586 1587 1587 1588 1587 1587 1588 1588 1588 1589 1589 1589 1590 1590 1591 1591 1592 1592 1592 1593 1593 1594 1594 1594 1595 1595 1595 1595 1595
1541 1542 1543 1545 1546 1548 1549 1551 1553 1554 1556 1557 1559 1560 1561 1563 1564 1565 1567 1568 1569 1570 1571 1572 1573 1574 1575 1576 1577 1578 1578 1578 1579 1579 1579 1580 1580 1581 1582 1582 1583 1583 1583 1583 1584 1584 1584 1585 1585 1585 1585 1586 1586 1587 1587 1587 1587 1588 1588 1588 1588 1588 1589 1589 1589 1590 1590 1590 1591 1591 1591 1592 1593 1593 1593 1594 1594 1594 1595 1595 1595 1596 1596 1596 1596
1543 1543 1544 1545 1547 1548 1549 1551 1553 1554 1556 1557 1559 1560 1562 1563 1565 1566 1567 1569 1570 1571 1572 1573 1574 1575 1576 1577 1578 1579 1579 1579 1580 1580 1580 1580 1581 1582 1582 1583 1584 1584 1585 1585 1585 1585 1586 1586 1586 1586 1587 1587 1587 1588 1588 1588 1588 1589 1589 1589 1589 1589 1590 1590 1590 1591 1591 1591 1591 1592 1592 1593 1594 1594 1594 1594 1595 1595 1596 1596 1596 1596 1596 1596 1597
1543 1544 1545 1546 1547 1548 1550 1551 1553 1555 1556 1558 1559 1561 1563 1564 1565 1567 1568 1570 1571 1572 1573 1574 1575 1576 1577 1578 1579 1579 1580 1581 1581 1581 1581 1581 1581 1582 1583 1584 1585 1586 1586 1586 1587 1587 1587 1588 1588 1588 1588 1588 1588 1589 1589 1590 1590 1590 1590 1590 1591 1591 1591 1591 1591 1592 1592 1592 1592 1593 1593 1594 1594 1594 1595 1595 1595 1596 1596 1596 1597 1597 1597 1597 1598
1543 1545 1545 1546 1547 1548 1550 1551 1553 1555 1557 1558 1560 1561 1563 1564 1566 1568 1569 1571 1571 1573 1574 1575 1576 1577 1578 1579 1580 1580 1581 1582 1582 1582 1582 1582 1582 1583 1584 1585 1586 1587 1588 1588 1588 1589 1589 1589 1589 1589 1589 1589 1590 1590 1590 1591 1591 1591 1591 1591 1591 1592 1592 1592 1592 1593 1593 1593 1593 1594 1594 1594 1595 1595 1595 1596 1596 1596 1597 1597 1597 1597 1598 1598 1598
1543 1545 1546 1547 1547 1549 1550 1552 1553 1555 1557 1559 1560 1562 1563 1565 1567 1568 1570 1571 1572 1573 1574 1576 1577 1578 1579 1580 1581 1581 1582 1583 1583 1583 1583 1584 1584 1584 1585 1586 1587 1588 1589 1589 1590 1590 1590 1590 1590 1590 1590 1591 1591 1591 1592 1592 1592 1592 1592 1592 1592 1593 1593 1593 1593 1593 1593 1594 1594 1594 1595 1595 1595 1595 1596 1596 1596 1597 1597 1597 1598 1598 1598 1599 1599
1543 1544 1546 1548 1548 1549 1550 1552 1554 1556 1558 1559 1560 1562 1564 1565 1567 1569 1570 1572 1573 1574 1575 1576 1578 1579 1580 1581 1581 1582 1583 1583 1584 1584 1584 1585 1585 1586 1586 1587 1587 1588 1588 1589 1590 1590 1591 1591 1592 1592 1592 1592 1592 1592 1593 1593 1593 1593 1594 1593 1593 1594 1594 1594 1594 1594 1594 1595 1595 1595 1595 1596 1596 1596 1596 1596 1597 1597 1597 1598 1598 1598 1599 1599 1600
1543 1544 1546 1547 1548 1549 1551 1552 1554 1556 1558 1559 1561 1562 1564 1566 1567 1569 1571 1572 1574 1575 1576 1577 1578 1579 1580 1582 1582 1583 1584 1584 1584 1585 1585 1586 1586 1587 1587 1588 1588 1589 1589 1589 1590 1590 1591 1592 1592 1593 1593 1593 1593 1593 1593 1594 1594 1594 1594 1594 1595 1596 1595 1595 1595 1595 1595 1596 1596 1596 1596 1596 1596 1596 1596 1597 1597 1597 1598 1598 1598 1599 1599 1600 1600
1543 1544 1546 1547 1548 1549 1551 1553 1555 1556 1558 1560 1561 1563 1564 1566 1568 1569 1571 1573 1574 1575 1576 1578 1579 1580 1581 1582 1582 1583 1584 1584 1585 1585 1586 1587 1588 1588 1589 1589 1590 1590 1590 1590 1591 1591 1592 1592 1593 1594 1594 1594 1594 1594 1594 1594 1595 1595 1595 1595 1596 1597 1596 1595 1596 1596 1596 1596 1596 1597 1597 1597 1597 1597 1597 1597 1597 1598 1598 1598 1598 1599 1599 1600 1600
1542 1544 1545 1547 1548 1549 1551 1552 1555 1557 1558 1560 1561 1563 1565 1566 1568 1569 1571 1573 1575 1576 1577 1579 1580 1581 1581 1582 1583 1583 1584 1585 1585 1586 1587 1588 1589 1589 1590 1591 1591 1591 1591 1591 1592 1592 1593 1593 1593 1594 1594 1595 1595 1595 1595 1595 1595 1596 1596 1597 1597 1597 1596 1596 1596 1596 1596 1597 1597 1597 1598 1597 1597 1597 1597 1597 1597 1598 1598 1599 1599 1599 1599 1600 1600
1542 1543 1545 1546 1548 1549 1551 1553 1555 1557 1558 1560 1562 1563 1565 1566 1568 1570 1572 1573 1575 1577 1578 1579 1580 1581 1582 1583 1584 1584 1585 1586 1586 1587 1588 1589 1590 1590 1591 1592 1592 1592 1592 1592 1592 1592 1593 1593 1594 1594 1594 1595 1596 1596 1596 1596 1596 1597 1598 1598 1598 1597 1597 1597 1597 1597 1597 1597 1597 1597 1598 1598 1598 1598 1598 1598 1598 1598 1599 1599 1599 1600 1600 1600 1600
1541 1543 1544 1546 1548 1549 1551 1553 1554 1556 1558 1560 1562 1564 1565 1567 1568 1570 1572 1574 1576 1578 1579 1580 1581 1582 1583 1584 1585 1586 1586 1587 1587 1588 1589 1590 1590 1590 1591 1592 1593 1593 1593 1593 1593 1594 1594 1595 1595 1595 1595 1595 1596 1597 1597 1597 1598 1598 1599 1599 1599 1598 1597 1597 1597 1597 1597 1597 1597 1598 1598 1598 1598 1598 1598 1598 1599 1599 1599 1600 1600 1600 1600 1600 1601
1540 1542 1544 1545 1548 1549 1551 1552 1554 1556 1558 1560 1562 1564 1566 1567 1569 1570 1572 1574 1576 1578 1579 1580 1581 1582 1583 1584 1586 1587 1587 1587 1588 1589 1590 1590 1590 1591 1591 1592 1593 1593 1594 1594 1594 1595 1595 1595 1596 1595 1596 1596 1597 1598 1599 1598 1599 1599 1599 1599 1599 1599 1598 1598 1598 1598 1598 1598 1598 1598 1598 1599 1599 1599 1599 1599 1600 1600 1600 1600 1600 1600 1601 1601 1601
1540 1541 1544 1545 1547 1549 1551 1552 1553 1556 1558 1560 1562 1564 1566 1568 1569 1571 1573 1575 1576 1578 1580 1581 1582 1583 1585 1586 1586 1587 1588 1588 1589 1590 1591 1591 1590 1591 1591 1592 1593 1593 1594 1595 1595 1596 1595 1596 1596 1596 1596 1597 1597 1598 1599 1599 1599 1599 1599 1599 1600 1600 1599 1599 1598 1598 1598 1598 1598 1599 1599 1599 1599 1600 1600 1600 1600 1600 1600 1600 1601 1601 1601 1601 1601
1539 1541 1543 1545 1547 1549 1551 1552 1553 1556 1558 1560 1562 1564 1566 1568 1569 1571 1573 1574 1576 1578 1580 1582 1583 1584 1585 1586 1586 1587 1588 1589 1590 1590 1591 1590 1590 1591 1592 1592 1593 1593 1594 1595 1596 1596 1595 1596 1596 1596 1597 1597 1598 1598 1599 1599 1599 1600 1600 1600 1600 1600 1600 1599 1599 1599 1599 1599 1599 1599 1599 1599 1600 1600 1600 1601 1601 1601 1601 1601 1601 1601 1601 1601 1602
1539 1541 1543 1545 1547 1549 1551 1552 1553 1556 1557 1560 1562 1564 1566 1568 1569 1571 1573 1574 1576 1579 1581 1583 1583 1584 1585 1586 1587 1587 1588 1589 1590 1590 1591 1591 1591 1592 1592 1592 1593 1594 1595 1595 1595 1596 1595 1595 1596 1596 1597 1597 1597 1598 1599 1599 1600 1600 1600 1600 1600 1600 1600 1600 1599 1599 1599 1599 1600 1599 1600 1600 1600 1600 1601 1601 1601 1601 1601 1601 1601 1602 1602 1602 1602
1538 1541 1542 1544 1547 1549 1551 1552 1553 1555 1557 1560 1562 1564 1566 1567 1569 1571 1573 1575 1577 1579 1582 1583 1582 1583 1585 1586 1587 1587 1588 1589 1589 1590 1591 1592 1592 1593 1593 1593 1594 1594 1595 1595 1595 1595 1596 1596 1596 1596 1597 1597 1597 1598 1599 1599 1600 1600 1600 1600 1600 1601 1601 1601 1601 1600 1599 1600 1600 1600 1600 1600 1601 1601 1601 1601 1601 1601 1601 1601 1602 1602 1602 1602 1602
1537 1540 1542 1544 1546 1548 1550 1552 1553 1555 1557 1559 1561 1563 1565 1567 1569 1571 1573 1575 1577 1579 1581 1581 1582 1583 1584 1586 1587 1587 1588 1589 1590 1590 1591 1592 1592 1593 1593 1594 1594 1594 1594 1595 1595 1595 1595 1596 1596 1596 1597 1597 1597 1598 1599 1600 1600 1600 1601 1601 1601 1601 1601 1601 1601 1601 1600 1600 1600 1600 1600 1601 1601 1601 1601 1601 1601 1601 1602 1602 1602 1602 1602 1602 1603
1537 1539 1541 1544 1546 1548 1550 1551 1552 1554 1557 1559 1560 1563 1565 1567 1569 1571 1572 1574 1577 1579 1580 1581 1582 1583 1584 1585 1586 1587 1588 1589 1590 1590 1591 1592 1592 1593 1594 1594 1594 1594 1594 1595 1595 1595 1595 1596 1596 1597 1597 1597 1598 1598 1599 1600 1600 1600 1601 1601 1601 1601 1601 1602 1601 1602 1602 1601 1601 1601 1601 1601 1601 1601 1601 1601 1601 1602 1602 1602 1602 1602 1603 1603 1603
1536 1538 1540 1543 1545 1547 1549 1551 1552 1554 1556 1558 1560 1562 1564 1566 1569 1570 1571 1574 1577 1579 1580 1581 1582 1583 1583 1585 1586 1587 1588 1589 1589 1590 1591 1592 1593 1593 1593 1594 1594 1594 1594 1595 1595 1595 1595 1596 1596 1597 1597 1597 1598 1599 1599 1600 1600 1600 1601 1601 1601 1602 1602 1602 1602 1602 1602 1602 1602 1601 1601 1601 1601 1602 1602 1602 1602 1602 1602 1602 1602 1602 1603 1603 1603
1536 1538 1540 1542 1545 1547 1549 1550 1551 1554 1556 1558 1560 1562 1564 1566 1568 1570 1571 1574 1576 1578 1580 1581 1582 1583 1583 1584 1585 1586 1587 1588 1589 1590 1591 1591 1592 1592 1592 1593 1594 1594 1594 1594 1595 1595 1595 1596 1596 1596 1597 1597 1598 1599 1600 1600 1600 1601 1601 1601 1602 1602 1602 1602 1602 1603 1603 1603 1603 1603 1602 1602 1601 1602 1602 1602 1602 1602 1602 1602 1602 1602 1602 1602 1602
1535 1537 1539 1542 1544 1546 1548 1550 1551 1553 1556 1557 1560 1562 1564 1566 1568 1570 1571 1574 1576 1578 1580 1581 1583 1583 1583 1584 1585 1586 1587 1588 1588 1589 1590 1591 1591 1592 1592 1593 1594 1594 1594 1594 1594 1594 1595 1596 1596 1596 1597 1597 1598 1600 1600 1600 1601 1601 1602 1602 1602 1602 1602 1602 1602 1602 1603 1603 1603 1603 1603 1603 1602 1602 1602 1602 1602 1602 1602 1602 1602 1602 1602 1602 1602
1535 1537 1539 1542 1544 1545 1548 1549 1550 1553 1555 1557 1559 1561 1564 1566 1568 1570 1571 1574 1576 1578 1580 1581 1582 1583 1583 1584 1585 1586 1587 1587 1588 1589 1590 1591 1591 1591 1592 1593 1593 1594 1594 1594 1594 1594 1595 1595 1596 1596 1597 1597 1598 1599 1600 1600 1601 1601 1602 1601 1601 1602 1602 1602 1602 1602 1603 1603 1603 1603 1603 1603 1603 1603 1602 1602 1602 1602 1603 1602 1602 1602 1602 1602 1602
1534 1536 1538 1541 1543 1544 1547 1548 1550 1552 1554 1556 1558 1560 1563 1565 1567 1569 1571 1573 1575 1578 1579 1581 1582 1582 1583 1584 1585 1585 1586 1587 1588 1589 1589 1590 1591 1592 1592 1592 1593 1593 1594 1594 1594 1594 1594 1595 1596 1597 1597 1598 1599 1599 1600 1600 1600 1601 1601 1601 1601 1602 1602 1602 1602 1603 1603 1603 1603 1603 1603 1603 1603 1604 1603 1603 1603 1602 1602 1602 1602 1602 1602 1602 1602
1533 1534 1537 1540 1541 1543 1546 1547 1549 1551 1552 1554 1556 1559 1561 1563 1566 1568 1570 1572 1574 1577 1579 1581 1582 1582 1582 1583 1584 1585 1586 1587 1588 1589 1589 1590 1592 1592 1592 1592 1593 1593 1593 1594 1594 1594 1594 1595 1596 1596 1597 1598 1599 1599 1600 1600 1600 1600 1601 1601 1602 1602 1602 1602 1603 1603 1603 1603 1603 1604 1604 1604 1603 1604 1604 1604 1604 1603 1602 1602 1601 1601 1601 1601 1602
1531 1533 1535 1538 1540 1542 1544 1546 1548 1550 1551 1553 1555 1558 1560 1562 1565 1567 1569 1571 1573 1575 1577 1580 1581 1581 1581 1583 1584 1585 1586 1587 1588 1588 1589 1590 1591 1592 1592 1592 1593 1593 1593 1594 1594 1594 1594 1595 1596 1596 1597 1598 1599 1599 1599 1600 1600 1601 1601 1602 1602 1602 1602 1603 1603 1603 1603 1604 1604 1604 1604 1604 1604 1604 1604 1604 1604 1604 1602 1602 1601 1601 1601 1601 1601
1530 1532 1534 1537 1539 1541 1543 1544 1546 1548 1550 1553 1555 1557 1559 1561 1564 1566 1568 1571 1572 1575 1577 1579 1580 1580 1581 1583 1584 1584 1585 1586 1587 1588 1589 1590 1590 1591 1591 1592 1593 1593 1593 1594 1594 1594 1595 1596 1596 1597 1597 1598 1598 1599 1599 1599 1600 1601 1601 1601 1602 1602 1602 1602 1603 1603 1603 1604 1604 1604 1604 1605 1605 1605 1605 1604 1603 1603 1603 1603 1602 1602 1602 1601 1601
1529 1530 1532 1535 1537 1539 1541 1543 1545 1547 1549 1552 1554 1556 1559 1561 1564 1566 1568 1570 1572 1574 1576 1578 1579 1580 1580 1582 1583 1584 1585 1586 1587 1588 1589 1589 1590 1591 1592 1592 1593 1593 1594 1594 1594 1594 1595 1596 1596 1596 1597 1598 1598 1599 1599 1600 1600 1601 1601 1601 1602 1602 1602 1602 1602 1603 1603 1604 1604 1604 1604 1605 1605 1604 1604 1605 1604 1604 1603 1603 1603 1603 1602 1601 1601
1527 1528 1530 1533 1535 1537 1539 1541 1544 1546 1547 1550 1553 1555 1558 1560 1563 1565 1568 1569 1571 1573 1575 1576 1578 1579 1580 1581 1582 1583 1584 1585 1586 1587 1588 1589 1590 1591 1592 1592 1593 1593 1594 1594 1594 1595 1596 1596 1596 1597 1597 1598 1598 1598 1599 1600 1600 1600 1601 1601 1601 1602 1602 1602 1602 1603 1603 1604 1604 1604 1604 1604 1604 1604 1604 1604 1604 1603 1603 1603 1602 1603 1602 1602 1601
1524 1527 1529 1531 1533 1535 1537 1540 1542 1544 1546 1549 1552 1554 1556 1558 1561 1563 1566 1567 1569 1571 1573 1575 1577 1578 1579 1580 1581 1583 1584 1585 1586 1587 1588 1589 1590 1590 1591 1592 1593 1593 1593 1594 1595 1595 1596 1596 1597 1597 1597 1598 1598 1598 1599 1600 1600 1600 1600 1601 1601 1602 1602 1602 1603 1603 1603 1603 1603 1603 1603 1603 1603 1603 1604 1603 1603 1603 1603 1602 1602 1602 1601 1601 1601
1522 1525 1527 1529 1531 1533 1535 1538 1540 1542 1545 1547 1550 1553 1554 1556 1559 1561 1563 1565 1567 1569 1571 1574 1575 1577 1579 1580 1580 1582 1583 1584 1585 1586 1587 1588 1589 1590 1591 1592 1592 1593 1593 1594 1595 1595 1596 1596 1597 1597 1597 1597 1598 1598 1599 1600 1600 1600 1600 1601 1602 1602 1602 1603 1603 1603 1603 1602 1602 1602 1603 1603 1603 1602 1602 1602 1602 1602 1602 1602 1602 1601 1601 1601 1601
1520 1523 1525 1527 1529 1531 1533 1536 1539 1541 1543 1545 1548 1550 1552 1554 1557 1559 1562 1564 1565 1567 1570 1573 1575 1576 1578 1579 1580 1581 1582 1584 1585 1586 1587 1588 1589 1590 1590 1591 1592 1592 1593 1593 1594 1595 1595 1596 1596 1596 1597 1597 1598 1598 1599 1599 1600 1600 1601 1601 1602 1602 1602 1602 1603 1603 1603 1603 1602 1602 1602 1603 1603 1603 1603 1602 1602 1602 1602 1602 1602 1602 1601 1600 1600
1517 1520 1522 1525 1527 1529 1531 1534 1537 1539 1541 1543 1546 1548 1550 1552 1555 1557 1560 1562 1564 1566 1568 1571 1573 1575 1577 1578 1579 1580 1581 1583 1584 1585 1586 1587 1588 1589 1590 1590 1591 1592 1592 1593 1594 1595 1595 1595 1596 1596 1596 1597 1598 1598 1599 1599 1599 1600 1601 1601 1601 1602 1602 1602 1603 1603 1603 1603 1602 1602 1603 1603 1603 1604 1604 1603 1603 1603 1602 1602 1602 1602 1601 1600 1600
1515 1518 1520 1523 1526 1527 1529 1531 1534 1537 1539 1541 1544 1546 1548 1551 1553 1555 1558 1560 1562 1565 1567 1569 1572 1574 1576 1577 1579 1580 1580 1582 1583 1584 1585 1586 1587 1588 1589 1590 1590 1591 1592 1593 1594 1595 1595 1595 1595 1596 1596 1597 1597 1598 1598 1599 1599 1600 1600 1600 1600 1601 1601 1602 1602 1603 1603 1603 1602 1602 1603 1603 1603 1603 1603 1603 1604 1604 1603 1602 1602 1602 1602 1601 1600
1513 1516 1519 1521 1524 1525 1526 1529 1531 1534 1537 1539 1541 1544 1546 1549 1551 1554 1556 1558 1561 1563 1565 1567 1569 1572 1574 1575 1577 1579 1580 1580 1582 1583 1584 1585 1586 1587 1588 1589 1590 1590 1591 1592 1593 1594 1595 1595 1595 1596 1596 1596 1597 1597 1598 1598 1599 1599 1600 1600 1600 1600 1601 1602 1602 1603 1603 1603 1603 1602 1602 1603 1603 1603 1603 1603 1604 1603 1603 1602 1602 1602 1602 1601 1601